Flag for Canada Weather past 2 weeks in Toronto, Ontario, Canada

Now
43 °F

Passing clouds.


Feels Like: 37 °F
Forecast: 35 / 54 °F
Wind: 10 mph from North

Location: Toronto Pearson International Airport


UV Index: 5 (Moderate)

Visibility: 15 mi


Pressure: 30.17 "Hg

Humidity: 36%

Dew point: 18 °F

Location of TorontoLocation

Historic Weather in Toronto

°F

Toronto temperature yesterday

Maximum temperature yesterday: 48 °F (at 4:00 PM)
Minimum temperature yesterday: 37 °F (at 4:00 AM)
Average temperature yesterday: 42 °F

Past Weeks' High & Low Weather Summary

 TemperatureHumidityPressure
High72 °F (Apr 13, 5:00 PM)94% (Apr 22, 6:00 AM)30.56 "Hg (Apr 22, 6:00 AM)
Low21 °F (Apr 16, 3:00 AM)23% (Apr 23, 6:00 PM)29.51 "Hg (Apr 14, 11:00 AM)
Average45 °F60%30.04 "Hg
* Reported Apr 9 9:00 AM — Apr 24 9:00 AM, Toronto, Weather by CustomWeather, © 2014

Note: Actual official high and low records may vary slightly from our data, if they occured in-between our weather recording intervals... More about our weather records

Advertising

Historic Weather Conditions — Data for Previous 24 hours

 ConditionsComfort  
Time TempWeatherWind HumidityBarometerVisibility
9:00 AM
Apr 24
43 °FPassing clouds.10 mph36%30.17 "Hg15 mi
8:00 AM39 °FPassing clouds.9 mph42%30.17 "Hg15 mi
7:00 AM36 °FPassing clouds.6 mph52%30.16 "Hg15 mi
6:00 AM32 °FClear.8 mph60%30.15 "Hg15 mi
5:00 AM32 °FClear.9 mph60%30.13 "Hg15 mi
4:00 AM32 °FClear.7 mph60%30.11 "Hg15 mi
3:00 AM34 °FClear.8 mph51%30.10 "Hg15 mi
2:00 AM34 °FClear.8 mph51%30.11 "Hg15 mi
1:00 AM36 °FClear.8 mph48%30.10 "Hg15 mi
12:04 AM36 °FClear.10 mph48%30.09 "Hg15 mi
11:00 PM
Apr 23
39 °FClear.15 mph42%30.09 "Hg15 mi
10:00 PM41 °FClear.12 mph45%30.07 "Hg15 mi
9:00 PM43 °FPassing clouds.15 mph34%30.05 "Hg15 mi
8:00 PM45 °FPassing clouds.16 mph27%30.03 "Hg15 mi
7:00 PM46 °FPassing clouds.17 mph25%30.02 "Hg15 mi
6:00 PM48 °FPassing clouds.23 mph23%30.00 "Hg15 mi
5:00 PM48 °FPassing clouds.21 mph29%29.98 "Hg15 mi
4:00 PM48 °FSunny.18 mph32%29.98 "Hg15 mi
3:00 PM46 °FPassing clouds.22 mph40%29.97 "Hg15 mi
2:00 PM46 °FPassing clouds.20 mph43%29.96 "Hg15 mi
1:00 PM45 °FPassing clouds.21 mph49%29.95 "Hg15 mi
12:00 PM43 °FPassing clouds.18 mph57%29.95 "Hg15 mi
11:00 AM41 °FPartly sunny.24 mph61%29.94 "Hg15 mi
10:00 AM39 °FPartly sunny.22 mph61%29.93 "Hg15 mi
Weather by CustomWeather, © 2014

See weather overview